Location: Lucerne Valley
(34.4439°N, 116.9669°E)
Time: 12:37:33
(UTC-08:00)

Tiangong 2 - Pass Details

Date: 12 October 2017
Orbit: 387 x 389 km, 42.8° (Epoch: 18 December)

Event Time Altitude Azimuth Distance (km) Brightness Sun altitude
Exits shadow 13:03:22 13° 44° (NE) 1,259 4.3 -28.0°
Drops below altitude 10° 13:03:48 10° 47° (NE) 1,418 4.6 -27.9°
Sets 13:06:01 0° 58° (ENE) 2,276 6.0 -27.5°
